Tracking 18785 objects as of 19-August-2017
HD Live streaming from Space Station
objects crossing your sky now

TERRIERS

Track TERRIERS now!
10-day predictions
TERRIERS is classified as:


NORAD ID: 25735
Int'l Code: 1999-026A
Perigee: 433.0 km
Apogee: 441.0 km
Inclination: 97.2 °
Period: 93.2 minutes
Semi major axis: 6807 km
RCS: 0.4968 m2 (medium)
Launch date: May 18, 1999
Source: United States (US)
Launch site: Pegasus launched from Western Range Air Space (WRAS)
Your satellite tracking list
Your tracking list is empty





NASA's NSSDC Master Catalog

Two Line Element Set (TLE):
1 25735U 99026A   17231.17857995 +.00002122 +00000-0 +46015-4 0  9990
2 25735 097.1879 036.3134 0005872 129.8643 230.3124 15.45517588015965
Source of the keplerian elements: AFSPC